Tracking 23732 objects as of 28-Sep-2021
HD Live streaming from Space Station
objects crossing your sky now

GLOBALSTAR M031

Track GLOBALSTAR M031 now!
10-day predictions
GLOBALSTAR M031 is classified as:


NORAD ID: 25946
Int'l Code: 1999-058D
Perigee: 1,616.3 km
Apogee: 1,618.3 km
Inclination: 52.0 °
Period: 118.4 minutes
Semi major axis: 7988 km
RCS: 2.5697 m2 (large)
Launch date: October 18, 1999
Source: Globalstar (GLOB)
Launch site: TYURATAM MISSILE AND SPACE COMPLEX (TTMTR)
aabbcc
Your satellite tracking list
Your tracking list is empty




NASA's NSSDC Master Catalog

Two Line Element Set (TLE):
1 25946U 99058D   21271.06647653 -.00000154  00000-0 -64704-3 0  9993
2 25946  51.9957 291.5303 0001258 312.0038  77.5506 12.15971653999568
Source of the keplerian elements: AFSPC